Location: Toronto
(43.6672°N, 79.4170°W)
Time: 16:12:48
(UTC-05:00)

Daily predictions for brighter satellites

Satellite Brightness Start Highest point End
(mag) Time Altitude Azimuth Time Altitude Azimuth Time Altitude Azimuth
USA 32 4.1 17:03:11 10° S 17:08:17 60° E 17:13:26 10° NNE
SL-8 R/B 3.7 17:03:52 10° WSW 17:08:40 86° SSE 17:13:28 10° ENE
Okean 1 4.1 17:06:33 10° SSE 17:10:10 32° E 17:13:49 10° NNE
Cosmos 1536 4.4 17:08:35 10° NNW 17:12:26 41° W 17:16:15 10° SSW
EP 2 4.2 17:10:14 10° SW 17:12:49 88° SE 17:15:38 10° NE
SL-16 R/B 4.3 17:09:24 10° N 17:14:28 28° WNW 17:19:32 10° WSW
SMAP 3.4 17:11:19 10° SE 17:15:43 43° ENE 17:20:07 10° N
Cosmos 1346 Rocket 3.8 17:12:50 10° SSE 17:16:03 25° E 17:19:17 10° NE
Cosmos 1455 Rocket 3.1 17:13:42 10° N 17:18:06 66° E 17:22:30 10° SSE
Genesis I 3.1 17:15:17 10° NNW 17:19:14 75° NE 17:23:07 10° SE
Cosmos 1833 Rocket 3.2 17:18:15 10° N 17:23:26 35° NE 17:28:34 10° ESE
ISS -1.7 17:22:29 10° WNW 17:25:15 24° NNW 17:28:03 10° NE
Cosmos 2082 Rocket 2.5 17:25:11 10° NNW 17:30:38 46° ENE 17:36:05 10° SE
IDEFIX/ARIANE 42P 2.5 17:27:35 10° SSE 17:32:43 66° ENE 17:37:51 10° N
OE (NEXTSAT) 4.4 17:30:10 10° WSW 17:33:44 83° SSE 17:36:45 14° ENE
SL-8 Rocket 4.4 17:27:46 10° NNW 17:33:54 69° W 17:40:00 10° S
Thor Agena Rocket 3.6 17:30:39 10° NNE 17:35:50 62° ESE 17:41:03 10° S
Cosmos 1500 3.2 17:35:28 10° N 17:39:16 57° E 17:43:04 10° SSE
Cosmos 1743 3.6 17:35:55 10° NNE 17:39:18 28° ENE 17:42:38 10° SE
Tiangong 1 1.5 17:37:09 10° WSW 17:40:07 49° SSE 17:42:20 16° E
NOSS 2-1 (E) 4.4 17:38:42 10° S 17:42:05 29° ESE 17:44:42 16° ENE
Okean 1-7 Rocket 4.4 17:38:50 10° SSE 17:42:47 31° E 17:46:45 10° NNE
SJ-7 4.4 17:40:27 10° SSE 17:44:40 74° ENE 17:48:55 10° N
Cosmos 2366 rocket 4.3 17:41:10 10° NNW 17:47:30 74° W 17:53:45 10° S
AQUARIUS 4.2 17:46:09 10° SSE 17:50:38 84° WSW 17:55:10 10° NNW
Cosmos 1484 Rocket 3.0 17:51:12 10° SE 17:54:42 40° ENE 17:58:12 10° N
Meteor 2-21 4.4 17:52:18 10° N 17:58:31 78° E 18:04:38 10° SSE
USA 234 3.3 17:53:20 14° NE 17:59:05 84° SE 18:05:38 10° SW
Cosmos 1975 3.3 17:55:05 10° NNW 17:59:07 64° W 18:03:06 10° S
Cosmos 1238 Rocket 4.0 17:56:48 10° SW 17:59:32 32° WNW 18:02:30 10° N
CZ-4 R/B 4.4 17:55:53 10° SSE 18:00:02 86° ENE 18:04:14 10° NNW
Cosmos 1606 Rocket 4.3 18:01:45 10° NNE 18:05:42 30° ENE 18:09:39 10° SE
CZ-4 R/B 2.9 18:03:16 10° S 18:07:12 40° W 18:11:05 10° NNW
Meteor 2-9 Rocket 4.5 18:03:44 10° N 18:08:50 40° ENE 18:13:49 10° SE
Meteor 1-13 Rocket 4.2 18:03:35 10° S 18:09:15 71° E 18:15:05 10° NNE
MSX 3.8 18:04:25 10° SSE 18:10:11 87° WSW 18:15:59 10° NNW
Cosmos 2369 Rocket 4.2 18:08:45 10° ESE 18:08:55 10° ESE 18:08:55 10° ESE
Abrixas 3.4 18:10:22 10° WNW 18:13:13 45° SSW 18:14:59 19° SE
COSMO-SKYMED 1 2.6 18:09:49 15° NNE 18:13:20 54° E 18:17:35 10° S
NOSS 3-4 (A) 3.8 18:06:46 10° NNW 18:13:39 59° NE 18:20:57 10° SE
NOSS 3-4 (C) 3.8 18:06:52 10° NNW 18:13:45 59° NE 18:21:02 10° SE
MONITOR-E 4.2 18:11:28 10° S 18:14:39 83° WSW 18:17:52 10° NNW
Meteor 2-4 Rocket 3.8 18:10:01 10° SSE 18:15:04 44° E 18:19:06 16° NNE
CZ-2C R/B 3.5 18:10:32 10° S 18:15:24 50° W 18:20:26 10° NNW
Meteor 2-14 Rocket 4.4 18:10:25 10° N 18:16:36 79° E 18:22:44 10° SSE
COSMOS 2441 4.4 18:13:44 10° SSE 18:18:37 83° WSW 18:23:33 10° NNW
CZ-3B DEB 3.0 18:14:49 10° W 18:19:02 54° NNW 18:25:57 20° NE
Cosmos 407 Rocket 3.9 18:15:16 10° N 18:20:00 36° ENE 18:21:59 27° ESE
Cosmos 1821 Rocket 3.9 18:15:01 10° N 18:21:05 65° E 18:27:07 10° SSE
Cosmos 2056 Rocket 3.9 18:16:39 10° S 18:21:42 44° ESE 18:23:51 29° NE
Cosmos 921 Rocket 3.1 18:21:30 10° SSW 18:25:46 77° WNW 18:28:57 18° NNE
Cosmos 1025 Rocket 3.0 18:21:40 10° S 18:25:58 58° E 18:28:12 27° NNE
NOAA 12 4.2 18:21:14 10° SE 18:26:17 49° ENE 18:31:20 10° N
ERBS 4.5 18:25:05 10° NNW 18:26:20 16° N 18:26:20 16° N
Cosmos 1605 Rocket 4.2 18:25:41 10° N 18:31:42 45° ENE 18:37:36 10° SSE
Cosmos 1624 Rocket 3.9 18:29:34 10° S 18:34:41 62° ESE 18:36:48 34° NE
Cosmos 1371 Rocket 3.9 18:35:01 10° SSW 18:40:22 85° ESE 18:43:24 27° NNE
Cosmos 2297 4.2 18:35:20 10° SW 18:40:52 57° WNW 18:45:18 16° NNE
METEOR-M 4.0 18:44:01 10° SSE 18:49:18 67° ENE 18:54:37 10° N
Cosmos 2278 Rocket 4.0 18:46:07 10° WSW 18:50:47 26° NW 18:55:30 10° N
SL-8 R/B 4.1 18:46:52 10° W 18:51:30 48° N 18:52:00 46° NNE
Cosmos 1666 2.9 18:49:45 10° NNW 18:53:37 70° W 18:57:28 10° S
BREEZE-M R/B 3.9 18:46:40 10° W 18:55:49 58° NNW 18:57:05 46° NNE
GEOS 3 Rocket 3.4 19:00:07 61° ESE 19:00:58 77° NE 19:06:06 10° NW
ISS -0.6 18:59:54 10° NW 19:00:43 14° NW 19:00:43 14° NW
Cosmos 1833 Rocket 4.1 19:02:13 10° NW 19:07:20 37° WSW 19:12:26 10° S
Cosmos 1727 Rocket 3.8 19:04:27 10° S 19:10:35 66° E 19:10:53 65° ENE
Cosmos 1190 Rocket 4.2 19:05:42 10° NNW 19:10:56 71° WSW 19:15:36 13° S
Cosmos 2082 Rocket 4.2 19:09:44 10° NW 19:14:27 28° WSW 19:19:11 10° SSW
Tiangong 1 4.0 19:13:10 10° W 19:14:01 17° W 19:14:01 17° W
Cosmos 1892 Rocket 4.4 19:14:04 10° SSW 19:17:15 46° SW 19:17:15 46° SW
FALCON 9 R/B 3.6 19:02:47 10° W 19:22:11 49° SSW 19:24:36 38° SSE
Cosmos 1726 Rocket 4.5 19:20:09 10° NNW 19:24:27 47° W 19:28:44 10° SSW
USA 234 4.1 19:40:41 38° N 19:41:44 40° NNW 19:47:43 10° W
Cosmos 2369 Rocket 3.8 19:48:33 10° SSW 19:50:46 25° SSW 19:50:46 25° SSW
CZ-3B DEB 4.4 20:48:21 10° WNW 20:53:53 44° NNW 20:53:53 44° NNW
